Regional Weather Roundup
Issued by NWS Cleveland, OH

Home | Current Version | Previous Version | Graphics & Text | Print | Product List | Glossary On
Versions: 1 2 3 4 5 6 7 8 9 10 11 12 13 14 15 16 17 18 19 20 21 22 23 24 25 26 27 28 29 30 31 32 33 34 35 36 37 38 39 40 41 42 43 44 45 46 47 48 49 50
000
ASUS41 KCLE 201902
RWRCLE
OHIO REGIONAL WEATHER ROUNDUP
NATIONAL WEATHER SERVICE CLEVELAND, OH
200 PM EST THU NOV 20 2014

NOTE: "FAIR" INDICATES FEW OR NO CLOUDS BELOW 12,000 FEET WITH NO
SIGNIFICANT WEATHER AND/OR OBSTRUCTIONS TO VISIBILITY.

OHZ001>008-015>018-024>027-034-035-043-044-202000-
   NORTHWEST OHIO

CITY           SKY/WX    TMP DP  RH WIND       PRES   REMARKS
DEFIANCE       CLOUDY    28  12  51 W13G25    30.02S WCI  17
FINDLAY        PTSUNNY   27  14  58 W25       30.02R WCI  12
TOLEDO EXPRESS CLOUDY    26  11  52 W24G35    29.98S WCI  11
TOLEDO EXEC    CLOUDY    27  13  55 W25       30.00R WCI  12
LIMA           PTSUNNY   27  14  58 W26       30.04R WCI  12
$$

OHZ009>014-019>023-028>033-038-089-202000-
   NORTHEAST OHIO

CITY           SKY/WX    TMP DP  RH WIND       PRES   REMARKS
CLE-HOPKINS    PTSUNNY   26  12  55 SW25G33   30.00S WCI  11
CLE-LAKEFRONT  PTSUNNY   27  14  58 SW25G33   29.97S WCI  12
CUY CO. ARPT   PTSUNNY   28  14  54 SW17G29   29.96R WCI  16
LORAIN-ELYRIA  CLOUDY    26  14  60 W22G30    29.99S WCI  12
ASHTABULA      CLOUDY    27  10  49 SW23      29.92S WCI  12
AKRON-CANTON   PTSUNNY   26  10  50 W20G30    29.97S WCI  12
WOOSTER        MOSUNNY   27  11  51 W24G33    29.99S WCI  12
MANSFIELD      CLOUDY    24  13  62 SW20G33   29.98S WCI  10
YOUNGSTOWN     PTSUNNY   25  11  55 SW20G32   29.94F WCI  11
$$

OHZ042-051>053-060>062-070>072-077>081-202000-
  SOUTHWEST OHIO

CITY           SKY/WX    TMP DP  RH WIND       PRES   REMARKS
CINC-COVINGTON MOSUNNY   30  13  49 W14       30.13F WCI  19
CINC-LUNKEN    MOSUNNY   32  15  49 W16       30.17F WCI  21
HAMILTON       MOSUNNY   31  15  52 W9G17     30.15S WCI  23
DAYTON         PTSUNNY   28  16  60 W23       30.09F WCI  14
WRIGHT-PAT AFB MOSUNNY   28  14  57 SW21G29   30.09S WCI  14
DAYTON GENERAL MOSUNNY   29  13  51 W14G24    30.09F WCI  18
WILMINGTON     MOSUNNY   28  13  53 W16       30.08F WCI  16
$$

OHZ036-037-039>041-045>050-054>059-063>069-073>076-082>088-202000-
  CENTRAL AND SOUTHEAST OHIO

CITY           SKY/WX    TMP DP  RH WIND       PRES   REMARKS
COLUMBUS       MOSUNNY   27  12  53 W18G30    30.08F WCI  14
OSU AIRPORT    PTSUNNY   28  14  55 W15       30.06F WCI  16
BOLTON FIELD   CLOUDY    27  14  59 SW16G24   30.09S WCI  14
RICKENBACK AFB NOT AVBL
NEWARK         CLOUDY    26  12  55 W16       30.07S WCI  14
MARION         CLOUDY    26  12  55 W18G25    30.03F WCI  13
LANCASTER      PTSUNNY   28  15  58 W20G26    30.10S WCI  15
ZANESVILLE     PTSUNNY   27  13  55 W21G26    30.07S WCI  13
NEW PHILLY     PTSUNNY   27  11  51 W12G20    30.04S WCI  17
$$


USA.gov is the U.S. government's official web portal to all federal, state and local government web resources and services.